This is the latest recevied weather packets stored in our database for station/object KE5YIM-13. If no packets are shown the sender has not sent any weather packets the latest 10 day(s).
| Time | Temp. | Humidity | Pressure | Rain* | Wind** | Luminosity | Snow |
|---|---|---|---|---|---|---|---|
| 1777652463 | 15.56° C | 40% | 1012.9 hPa | 0 mm | - | 837 W/m² | - |
| 1777652160 | 15° C | 42% | 1012.8 hPa | 0 mm | - | 836 W/m² | - |
| 1777651857 | 15° C | 43% | 1013.1 hPa | 0 mm | - | 829 W/m² | - |
| 1777651553 | 14.44° C | 46% | 1013 hPa | 0 mm | - | 825 W/m² | - |
| 1777651250 | 16.11° C | 43% | 1013.1 hPa | 0 mm | - | 812 W/m² | - |
| 1777650947 | 15.56° C | 49% | 1013.2 hPa | 0 mm | - | 808 W/m² | - |
| 1777650644 | 15° C | 46% | 1013.3 hPa | 0 mm | - | 818 W/m² | - |
| 1777650342 | 14.44° C | 48% | 1013.3 hPa | 0 mm | - | 799 W/m² | - |
| 1777650038 | 15° C | 47% | 1013.3 hPa | 0 mm | - | 790 W/m² | - |
| 1777649736 | 15° C | 49% | 1013.2 hPa | 0 mm | - | 786 W/m² | - |
| 1777649432 | 14.44° C | 51% | 1013.3 hPa | 0 mm | - | 791 W/m² | - |
| 1777649129 | 14.44° C | 46% | 1013.2 hPa | 0 mm | - | 481 W/m² | - |
| 1777648827 | 13.89° C | 48% | 1013.1 hPa | 0 mm | - | 766 W/m² | - |
| 1777648523 | 13.89° C | 49% | 1013.3 hPa | 0 mm | - | 756 W/m² | - |
| 1777648220 | 13.89° C | 46% | 1013.3 hPa | 0 mm | - | 749 W/m² | - |
| 1777647915 | 13.89° C | 51% | 1013.4 hPa | 0 mm | - | 739 W/m² | - |
| 1777647612 | 13.89° C | 51% | 1013.3 hPa | 0 mm | - | 732 W/m² | - |
| 1777647309 | 13.89° C | 51% | 1013.3 hPa | 0 mm | - | 720 W/m² | - |
| 1777647007 | 13.89° C | 48% | 1013.1 hPa | 0 mm | - | 714 W/m² | - |
| 1777646702 | 13.33° C | 51% | 1013.5 hPa | 0 mm | - | 704 W/m² | - |
| 1777646398 | 12.78° C | 53% | 1013.5 hPa | 0 mm | - | 692 W/m² | - |
| 1777646095 | 12.78° C | 53% | 1013.4 hPa | 0 mm | - | 682 W/m² | - |
| 1777645791 | 12.78° C | 51% | 1013.6 hPa | 0 mm | - | 671 W/m² | - |
| 1777645489 | 13.33° C | 56% | 1013.5 hPa | 0 mm | - | 666 W/m² | - |
| 1777645184 | 12.78° C | 56% | 1013.5 hPa | 0 mm | - | 660 W/m² | - |
* Rain latest hour (hover to see other rain measurements)
** Current wind speed in m/s (hover to see current wind gust speed)